Weather History for KSRB - April, 2013

Change the Weather History Date:

Friday, April 19, 2013

  Actual Average (KCSV) Record (KCSV)
Temperature  
Mean Temperature 53 °F 57 °F  
Max Temperature 73 °F 68 °F 83 °F (2002)
Min Temperature 33 °F 46 °F 23 °F (1983)
Degree Days  
Heating Degree Days 12    
Month to date heating degree days  
Since 1 July heating degree days  
Cooling Degree Days 0    
Month to date cooling degree days  
Year to date cooling degree days  
Growing Degree Days 3 (Base 50)    
Moisture  
Dew Point 45 °F    
Average Humidity 87    
Maximum Humidity 100    
Minimum Humidity 66    
Precipitation  
Precipitation 0.00 in 0.16 in 1.38 in (2013)
Month to date precipitation 3.04  
Year to date precipitation 17.24  
Sea Level Pressure  
Sea Level Pressure 29.90 in    
Wind  
Wind Speed 11 mph (West)    
Max Wind Speed 18 mph    
Max Gust Speed 31 mph    
Visibility 8 miles    
Events      
T = Trace of Precipitation, MM = Missing Value Source: NWS Daily Summary

Daily Weather History Graph

Daily Weather History Graph

Search for Another Location

Airport or City:

Trip Planner

Search our weather history database for the weather conditions in past years. The results will help you decide how hot, cold, wet, or windy it might be!

Date:

Astronomy

Apr. 19, 2013 Rise Set
Actual Time 6:03 AM CDT 7:19 PM CDT
Civil Twilight 5:36 AM CDT 7:46 PM CDT
Nautical Twilight 5:04 AM CDT 8:18 PM CDT
Astronomical Twilight 4:31 AM CDT 8:51 PM CDT
Moon 1:14 PM CDT (4/19) 2:06 AM CDT (4/19)
Length of Visible Light 14h 09m
Length of Day
13h 15m
First Quarter, 62% of the Moon is Illuminated
Apr 19
First Quarter
Apr 25
Full
May 2
Last Quarter
May 9
New
May 17
First Quarter

Hourly Weather History & Observations

Time (CDT) Temp. Windchill Dew Point Humidity Pressure Visibility Wind Dir Wind Speed Gust Speed Precip Events Conditions
12:15 AM 73.4 °F - 64.4 °F 73% 29.67 in 10.0 mi South 18.4 mph 31.1 mph N/A   Clear
12:35 AM 71.6 °F - 64.4 °F 78% 29.67 in 10.0 mi South 15.0 mph - N/A   Clear
12:55 AM 71.6 °F - 64.4 °F 78% 29.67 in 10.0 mi South 15.0 mph 31.1 mph N/A   Scattered Clouds
1:15 AM 71.6 °F - 66.2 °F 83% 29.67 in 10.0 mi South 15.0 mph 26.5 mph N/A   Mostly Cloudy
1:35 AM 71.6 °F - 66.2 °F 83% 29.67 in 10.0 mi South 18.4 mph - N/A   Overcast
1:55 AM 69.8 °F - 66.2 °F 88% 29.66 in 6.0 mi South 12.7 mph - N/A   Overcast
2:15 AM 68.0 °F - 66.2 °F 94% 29.64 in 5.0 mi South 15.0 mph - N/A   Overcast
2:35 AM 66.2 °F - 66.2 °F 100% 29.64 in 5.0 mi South 12.7 mph - N/A   Overcast
2:55 AM 66.2 °F - 66.2 °F 100% 29.65 in 4.0 mi South 11.5 mph - N/A   Overcast
3:15 AM 66.2 °F - 64.4 °F 94% 29.67 in 3.0 mi SW 10.4 mph - N/A   Overcast
3:35 AM 64.4 °F - 64.4 °F 100% 29.66 in 1.0 mi WSW 6.9 mph - N/A   Overcast
3:55 AM 64.4 °F - 64.4 °F 100% 29.66 in 4.0 mi WSW 5.8 mph - N/A   Mostly Cloudy
4:15 AM 64.4 °F - 64.4 °F 100% 29.65 in 3.0 mi SW 9.2 mph - N/A   Overcast
4:35 AM 59.0 °F - 57.2 °F 94% 29.72 in 3.0 mi WNW 18.4 mph 31.1 mph N/A   Overcast
4:55 AM 53.6 °F - 53.6 °F 100% 29.76 in 3.0 mi WNW 10.4 mph - N/A   Overcast
5:15 AM 51.8 °F - 51.8 °F 100% 29.74 in 4.0 mi NW 6.9 mph - N/A   Overcast
5:55 AM 50.0 °F - 50.0 °F 100% 29.78 in 5.0 mi Variable 6.9 mph - N/A   Overcast
6:15 AM 48.2 °F - 48.2 °F 100% 29.81 in 4.0 mi West 5.8 mph - N/A   Overcast
6:35 AM 46.4 °F 41.5 °F 46.4 °F 100% 29.83 in 4.0 mi WNW 10.4 mph - N/A   Mostly Cloudy
6:55 AM 46.4 °F 44.3 °F 46.4 °F 100% 29.82 in 7.0 mi NW 4.6 mph - N/A   Overcast
7:15 AM 46.4 °F 43.5 °F 46.4 °F 100% 29.83 in 10.0 mi NW 5.8 mph - N/A   Overcast
7:35 AM 46.4 °F 42.4 °F 46.4 °F 100% 29.84 in 5.0 mi NW 8.1 mph - N/A   Overcast
7:55 AM 46.4 °F 42.9 °F 44.6 °F 93% 29.84 in 1.2 mi NW 6.9 mph - N/A   Overcast
8:15 AM 44.6 °F 39.7 °F 44.6 °F 100% 29.87 in 1.8 mi NW 9.2 mph - N/A   Overcast
8:35 AM 44.6 °F 39.2 °F 44.6 °F 100% 29.87 in 8.0 mi NW 10.4 mph - N/A   Overcast
8:55 AM 44.6 °F 41.4 °F 44.6 °F 100% 29.89 in 10.0 mi NW 5.8 mph - N/A   Overcast
9:15 AM 42.8 °F 37.5 °F 42.8 °F 100% 29.90 in 2.0 mi NW 9.2 mph - N/A   Overcast
9:55 AM 42.8 °F 38.6 °F 42.8 °F 100% 29.92 in 10.0 mi Variable 6.9 mph - N/A   Overcast
10:15 AM 42.8 °F 36.2 °F 42.8 °F 100% 29.91 in 10.0 mi WNW 12.7 mph - N/A   Overcast
10:35 AM 44.6 °F 40.7 °F 42.8 °F 93% 29.92 in 10.0 mi WNW 6.9 mph - N/A   Overcast
10:55 AM 44.6 °F 42.2 °F 42.8 °F 93% 29.93 in 10.0 mi Variable 4.6 mph - N/A   Overcast
11:15 AM 44.6 °F 40.7 °F 42.8 °F 93% 29.95 in 10.0 mi West 6.9 mph - N/A   Overcast
11:35 AM 44.6 °F 40.7 °F 42.8 °F 93% 29.95 in 10.0 mi WNW 6.9 mph - N/A   Overcast
11:55 AM 44.6 °F 39.2 °F 42.8 °F 93% 29.95 in 10.0 mi West 10.4 mph - N/A   Overcast
12:15 PM 44.6 °F 38.8 °F 41.0 °F 87% 29.94 in 10.0 mi West 11.5 mph - N/A   Overcast
12:35 PM 44.6 °F 41.4 °F 41.0 °F 87% 29.95 in 10.0 mi WSW 5.8 mph - N/A   Overcast
12:55 PM 46.4 °F 41.9 °F 42.8 °F 87% 29.93 in 10.0 mi West 9.2 mph - N/A   Overcast
1:15 PM 44.6 °F 38.8 °F 41.0 °F 87% 29.94 in 10.0 mi West 11.5 mph - N/A   Overcast
1:35 PM 46.4 °F 42.9 °F 42.8 °F 87% 29.94 in 10.0 mi Variable 6.9 mph - N/A   Overcast
1:55 PM 46.4 °F 41.5 °F 41.0 °F 81% 29.94 in 10.0 mi WNW 10.4 mph - N/A   Overcast
2:15 PM 46.4 °F 41.1 °F 41.0 °F 81% 29.95 in 10.0 mi West 11.5 mph - N/A   Overcast
2:35 PM 46.4 °F 41.5 °F 39.2 °F 76% 29.95 in 10.0 mi West 10.4 mph - N/A   Overcast
2:55 PM 46.4 °F 42.4 °F 39.2 °F 76% 29.96 in 10.0 mi West 8.1 mph - N/A   Overcast
3:15 PM 48.2 °F - 41.0 °F 76% 29.95 in 10.0 mi WSW 10.4 mph - N/A   Mostly Cloudy
3:35 PM 50.0 °F - 41.0 °F 71% 29.94 in 10.0 mi West 11.5 mph - N/A   Mostly Cloudy
3:55 PM 48.2 °F - 39.2 °F 71% 29.93 in 10.0 mi West 6.9 mph - N/A   Mostly Cloudy
4:15 PM 50.0 °F - 41.0 °F 71% 29.94 in 10.0 mi WSW 10.4 mph - N/A   Mostly Cloudy
4:35 PM 50.0 °F - 39.2 °F 66% 29.95 in 10.0 mi WNW 12.7 mph - N/A   Mostly Cloudy
4:55 PM 48.2 °F - 39.2 °F 71% 29.96 in 10.0 mi West 10.4 mph - N/A   Mostly Cloudy
5:15 PM 48.2 °F - 39.2 °F 71% 29.97 in 10.0 mi Variable 3.5 mph - N/A   Overcast
5:35 PM 48.2 °F - 39.2 °F 71% 29.98 in 10.0 mi Variable 6.9 mph - N/A   Overcast
5:55 PM 46.4 °F 41.5 °F 37.4 °F 71% 29.98 in 10.0 mi WNW 10.4 mph - N/A   Overcast
6:15 PM 46.4 °F 42.9 °F 37.4 °F 71% 29.99 in 10.0 mi Variable 6.9 mph - N/A   Overcast
6:35 PM 46.4 °F 42.9 °F 37.4 °F 71% 29.99 in 10.0 mi Variable 6.9 mph - N/A   Mostly Cloudy
6:55 PM 46.4 °F 42.9 °F 37.4 °F 71% 30.00 in 10.0 mi Variable 6.9 mph - N/A   Mostly Cloudy
7:15 PM 44.6 °F 40.7 °F 37.4 °F 76% 30.01 in 10.0 mi NW 6.9 mph - N/A   Mostly Cloudy
7:35 PM 44.6 °F 41.4 °F 37.4 °F 76% 30.02 in 10.0 mi Variable 5.8 mph - N/A   Overcast
7:55 PM 44.6 °F 40.2 °F 37.4 °F 76% 30.04 in 10.0 mi NW 8.1 mph - N/A   Overcast
8:15 PM 44.6 °F 39.7 °F 35.6 °F 71% 30.05 in 10.0 mi NW 9.2 mph - N/A   Overcast
8:35 PM 42.8 °F 37.5 °F 35.6 °F 76% 30.07 in 10.0 mi NW 9.2 mph - N/A   Overcast
8:55 PM 42.8 °F 37.5 °F 35.6 °F 76% 30.08 in 10.0 mi NW 9.2 mph - N/A   Overcast
9:15 PM 42.8 °F 37.0 °F 33.8 °F 70% 30.10 in 10.0 mi NW 10.4 mph - N/A   Overcast
9:35 PM 41.0 °F 37.1 °F 33.8 °F 76% 30.11 in 10.0 mi Variable 5.8 mph - N/A   Scattered Clouds
9:55 PM 39.2 °F 37.0 °F 33.8 °F 81% 30.11 in 10.0 mi NW 3.5 mph - N/A   Partly Cloudy
10:15 PM 39.2 °F - 33.8 °F 81% 30.12 in 10.0 mi Calm Calm - N/A   Clear
10:35 PM 37.4 °F - 33.8 °F 87% 30.12 in 10.0 mi Calm Calm - N/A   Clear
10:55 PM 35.6 °F - 35.6 °F 100% 30.13 in 10.0 mi Calm Calm - N/A   Clear
11:15 PM 35.6 °F - 35.6 °F 100% 30.12 in 10.0 mi Calm Calm - N/A   Clear
11:35 PM 33.8 °F - 33.8 °F 100% 30.13 in 10.0 mi Calm Calm - N/A   Clear
11:55 PM 33.8 °F - 33.8 °F 100% 30.13 in 10.0 mi Calm Calm - N/A   Clear